Location: Buchloe
(48.0161°N, 10.7316°E)
Time: 11:41:05
(UTC+02:00)

ISS - Pass Details

Date: 19 May 2018
Orbit: 402 x 407 km, 51.6° (Epoch: 27 May)

Event Time Altitude Azimuth Distance (km) Brightness Sun altitude
Rises 04:04:08 0° 292° (WNW) 2,319 -0.2 -12.2°
Reaches altitude 10° 04:06:13 10° 294° (WNW) 1,458 -1.2 -12.0°
Maximum altitude 04:09:29 78° 21° (NNE) 415 -3.7 -11.7°
Drops below altitude 10° 04:12:45 10° 108° (ESE) 1,453 -0.7 -11.3°
Sets 04:14:49 0° 110° (ESE) 2,311 0.3 -11.1°
